sat.trackr.live / text

‹ back to catalog

STARLINK-33728

NORAD 63715 · 2025-087U

PAYLOAD ACTIVE UNKNOWN

§ Identity

Operator
Country
US
Launch date
2025-04-28
Launch site
AFWTR
Launch vehicle
Mass (kg)
RCS (m²)

Purposes: comms

External: N2YO · Heavens-Above · Gunter

§ Orbital elements

Epoch: 2026-09-20T14:07:10.665696Z

Period
93.85 min
Inclination
53.1611°
Eccentricity
0.0001259
Mean motion
15.34409358 rev/d
Perigee alt
461.8 km
Apogee alt
463.5 km
Semi-major
6,840.8 km
B*
3.1887e-4
RAAN
33.2672°
Arg perigee
112.8963°
Mean anomaly
247.2173°
Rev number
7,905

§ Raw data

STARLINK-337281 63715U 25087U   26263.58831789  .00010416  00000+0  31887-3 0  99932 63715  53.1611  33.2672 0001259 112.8963 247.2173 15.34409358 79050

JSON: /api/v1/satellites/63715 · /tle

For live sub-satellite position, see the globe view (requires WebGL).

§ Visibility from observer

Set your observer location to see the next 7 days of passes ≥ 10°. The values pass through the URL so the page stays shareable.

No JS? Fill the form by hand. The geolocation button needs JavaScript.